Home   Weather   Reno   Past weeks

Flag for USA Past Weather in Reno, Nevada, USA — Yesterday and Last 2 Weeks

60 °F

Partly cloudy.

Feels Like: 60 °F
Forecast: 53 / 64 °F
Wind: 5 mph from Southeast

Location: Reno Tahoe International Airport

Current Time: Oct 24, 2016 at 1:48:33 AM

Latest Report: Oct 24, 2016 at 12:55 AM

Visibility: 10 mi

Pressure: 29.83 "Hg (25.36 "Hg at 1372m altitude)

Humidity: 31%

Dew Point: 29 °F

Location of RenoLocation

Past Weather in Reno — Graph


Reno Temperature Yesterday

Maximum temperature yesterday: 75 °F (at 2:55 PM)
Minimum temperature yesterday: 40 °F (at 7:55 AM)
Average temperature yesterday: 57 °F

High & Low Weather Summary for the Past Weeks

High82 °F (Oct 9, 3:55 PM)93% (Oct 15, 9:55 PM)30.37 "Hg (Oct 15, 9:55 PM)
Low35 °F (Oct 19, 3:55 AM)9% (Oct 11, 2:55 PM)29.58 "Hg (Oct 15, 2:55 PM)
Average56 °F46%29.96 "Hg
* Reported Oct 8 11:55 PM — Oct 23 11:55 PM, Reno, Weather by CustomWeather, © 2016

Note: Actual official high and low records may vary slightly from our data, if they occured in-between our weather recording intervals... More about our weather records


Reno Weather History for the Previous 24 Hours

Scroll right to see more
Time TempWeatherWind HumidityBarometerVisibility
11:55 PM
Sun, Oct 23
62 °FOvercast.15 mph27%29.86 "Hg10 mi
10:55 PM62 °FPassing clouds.17 mph26%29.86 "Hg10 mi
9:55 PM63 °FPassing clouds.16 mph24%29.87 "Hg10 mi
8:55 PM62 °FPartly cloudy.12 mph27%29.87 "Hg10 mi
7:55 PM62 °FPartly cloudy.7 mph30%29.88 "Hg10 mi
6:55 PM64 °FPartly cloudy.6 mph23%29.85 "Hg10 mi
5:55 PM69 °FBroken clouds.12 mph17%29.82 "Hg10 mi
4:55 PM73 °FBroken clouds.17 mph14%29.80 "Hg10 mi
3:55 PM74 °FScattered clouds.21 mph14%29.80 "Hg10 mi
2:55 PM75 °FScattered clouds.18 mph15%29.81 "Hg10 mi
1:55 PM71 °FScattered clouds.No wind20%29.84 "Hg10 mi
12:55 PM67 °FScattered clouds.No wind23%29.88 "Hg10 mi
11:55 AM61 °FScattered clouds.No wind34%29.93 "Hg10 mi
10:55 AM56 °FScattered clouds.No wind44%29.95 "Hg10 mi
9:55 AM50 °FBroken clouds.No wind54%29.97 "Hg10 mi
8:55 AM45 °FBroken clouds.No wind65%29.97 "Hg10 mi
7:55 AM40 °FScattered clouds.No wind77%29.96 "Hg10 mi
6:55 AM41 °FPassing clouds.No wind74%29.95 "Hg10 mi
5:55 AM41 °FPassing clouds.No wind74%29.94 "Hg10 mi
4:55 AM44 °FPassing clouds.No wind65%29.91 "Hg10 mi
3:55 AM46 °FPassing clouds.No wind61%29.90 "Hg10 mi
2:55 AM46 °FPassing clouds.No wind63%29.90 "Hg10 mi
1:55 AM49 °FPassing clouds.6 mph52%29.88 "Hg10 mi
Weather by CustomWeather, © 2016

See weather overviewHow to use our weather pages